This demonstration page uses our WeatherBlox Daily Observations layout. Learn more.

Hourly Observations for November 3, 2015

Temp ( °F °C ) Dew Point ( °F °C ) Humidity (%) Winds ( mph kmh ) Pressure ( in mb ) Visibility ( mi km ) Precip ( " mm )
12:15 am 00:15 Clear 54 12.2 45 7 71 71 S 15 24 29.8 1009 10 16.0934 0 0
12:35 am 00:35 Clear 53 11.6 45 7.1 74 74 SSE 14 22 29.8 1009 10 16.0934 0 0
12:55 am 00:55 Clear 53 11.5 45 7.3 76 76 SSE 14 22 29.8 1009 10 16.0934 0 0
1:15 am 01:15 Clear 52 11 45 7.1 77 77 S 12 19 29.8 1009 10 16.0934 0 0
1:35 am 01:35 Clear 50 10.2 45 7.1 81 81 SSE 9 15 29.83 1010 10 16.0934 0 0
1:55 am 01:55 Clear 49 9.5 45 7 85 85 SSE 9 15 29.83 1010 10 16.0934 0 0
2:15 am 02:15 Clear 50 9.8 46 7.5 86 86 SSE 9 15 29.8 1009 10 16.0934 0 0
2:35 am 02:35 Clear 49 9.3 45 7.2 87 87 SSE 7 11 29.8 1009 10 16.0934 0 0
2:55 am 02:55 Clear 49 9.3 46 7.5 89 89 SSE 9 15 29.8 1009 10 16.0934 0 0
3:15 am 03:15 Clear 49 9.5 46 7.6 88 88 SSE 8 13 29.8 1009 10 16.0934 0 0
3:35 am 03:35 Clear 49 9.3 46 7.7 90 90 SSE 9 15 29.8 1009 10 16.0934 0 0
3:55 am 03:55 Clear 49 9.6 47 8.1 90 90 SSE 10 17 29.8 1009 10 16.0934 0 0
4:15 am 04:15 Clear 49 9.5 46 8 90 90 SSE 10 17 29.8 1009 10 16.0934 0 0
4:35 am 04:35 Clear 49 9.4 46 7.9 90 90 SSE 9 15 29.8 1009 10 16.0934 0 0
4:55 am 04:55 Clear 48 9.1 46 7.7 91 91 SSE 9 15 29.8 1009 10 16.0934 0 0
5:15 am 05:15 Clear 47 8.5 45 7.4 93 93 SSE 9 15 29.8 1009 10 16.0934 0 0
5:35 am 05:35 Clear 47 8.5 46 7.5 94 94 SSE 12 19 29.8 1009 10 16.0934 0 0
5:55 am 05:55 Clear 47 8.6 46 7.6 94 94 SSE 12 19 29.8 1009 10 16.0934 0 0
6:15 am 06:15 Clear 47 8.5 46 7.5 94 94 SSE 12 19 29.8 1009 10 16.0934 0 0
6:35 am 06:35 Clear 47 8.1 45 7.2 94 94 SSE 12 19 29.8 1009 10 16.0934 0 0
6:55 am 06:55 Clear 47 8.3 46 7.5 95 95 SSE 12 19 29.8 1009 10 16.0934 0 0
7:15 am 07:15 Sunny 46 8 45 7.2 95 95 SSE 8 13 29.8 1009 7 11.26538 0 0
7:35 am 07:35 Sunny with Mist and Fog 47 8.2 46 7.5 95 95 SSE 10 17 29.8 1009 5 8.0467 0 0
7:55 am 07:55 Sunny 48 8.9 47 8.1 95 95 SSE 13 20 29.8 1009 7 11.26538 0 0
8:15 am 08:15 Partly Cloudy 49 9.6 48 8.7 94 94 S 13 20 29.8 1009 7 11.26538 0 0
8:35 am 08:35 Mostly Cloudy 50 10.1 48 9.1 94 94 S 13 20 29.8 1009 7 11.26538 0 0
8:55 am 08:55 Mostly Cloudy 51 10.7 49 9.5 92 92 S 12 19 29.77 1008 10 16.0934 0 0
9:15 am 09:15 Partly Cloudy 53 11.6 49 9.7 88 88 S 13 20 29.77 1008 10 16.0934 0 0
9:35 am 09:35 Sunny 55 12.5 50 9.8 84 84 S 10 17 29.77 1008 10 16.0934 0 0
9:55 am 09:55 Sunny 56 13.1 49 9.6 79 79 S 15 24 29.77 1008 10 16.0934 0 0
10:15 am 10:15 Sunny 57 13.9 49 9.2 74 74 S 15 24 29.74 1007 10 16.0934 0 0
10:35 am 10:35 Sunny 59 14.9 48 8.9 68 68 S 17 28 29.74 1007 10 16.0934 0 0
10:55 am 10:55 Sunny 59 15.1 47 8.6 65 65 S 15 24 29.74 1007 10 16.0934 0 0
11:15 am 11:15 Sunny 60 15.8 47 8.5 62 62 S 16 26 29.74 1007 10 16.0934 0 0
11:35 am 11:35 Sunny 62 16.6 47 8.1 57 57 S 14 22 29.74 1007 10 16.0934 0 0
11:55 am 11:55 Sunny 64 18 46 8 52 52 S 17 28 29.71 1006 10 16.0934 0 0
12:15 pm 12:15 Sunny 66 19 46 7.7 48 48 S 15 24 29.71 1006 10 16.0934 0 0
12:35 pm 12:35 Sunny 68 19.8 46 7.5 45 45 S 17 28 29.71 1006 10 16.0934 0 0
12:55 pm 12:55 Sunny 69 20.8 45 7.1 41 41 S 16 26 29.65 1004 10 16.0934 0 0
1:15 pm 13:15 Sunny 71 21.6 45 7 39 39 S 15 24 29.65 1004 10 16.0934 0 0
1:35 pm 13:35 Sunny 73 22.5 44 6.8 36 36 S 20 31 29.65 1004 10 16.0934 0 0
1:55 pm 13:55 Sunny 73 22.8 44 6.6 35 35 S 20 31 29.65 1004 10 16.0934 0 0
2:15 pm 14:15 Sunny 74 23.4 44 6.8 34 34 S 18 30 29.62 1003 10 16.0934 0 0
2:35 pm 14:35 Sunny 74 23.4 45 7.1 35 35 S 17 28 29.62 1003 10 16.0934 0 0
2:55 pm 14:55 Sunny 75 23.9 44 6.9 34 34 S 18 30 29.59 1002 10 16.0934 0 0
3:15 pm 15:15 Sunny 76 24.5 43 6.3 31 31 S 18 30 29.59 1002 10 16.0934 0 0
3:35 pm 15:35 Sunny 77 25 43 6 30 30 S 22 35 29.59 1002 10 16.0934 0 0
3:55 pm 15:55 Sunny 77 25.1 43 6.1 30 30 S 17 28 29.59 1002 10 16.0934 0 0
4:15 pm 16:15 Sunny 77 24.8 43 6 30 30 S 23 37 29.59 1002 10 16.0934 0 0
4:35 pm 16:35 Sunny 76 24.4 43 6.2 31 31 S 20 31 29.59 1002 10 16.0934 0 0
4:55 pm 16:55 Sunny 74 23.6 44 6.4 33 33 S 15 24 29.59 1002 10 16.0934 0 0
5:15 pm 17:15 Sunny 73 22.7 43 6.3 35 35 S 16 26 29.62 1003 10 16.0934 0 0
5:35 pm 17:35 Clear 71 21.5 44 6.7 38 38 S 14 22 29.62 1003 10 16.0934 0 0
5:55 pm 17:55 Clear 69 20.5 45 7 42 42 S 13 20 29.62 1003 10 16.0934 0 0
6:15 pm 18:15 Clear 67 19.5 45 7.1 45 45 S 12 19 29.65 1004 10 16.0934 0 0
6:35 pm 18:35 Clear 66 19 45 7.2 46 46 S 12 19 29.68 1005 10 16.0934 0 0
6:55 pm 18:55 Clear 65 18.3 45 7.1 48 48 S 12 19 29.68 1005 10 16.0934 0 0
7:15 pm 19:15 Clear 65 18.3 45 7 48 48 S 10 17 29.68 1005 10 16.0934 0 0
7:35 pm 19:35 Clear 65 18.2 45 7.1 49 49 S 14 22 29.68 1005 10 16.0934 0 0
7:55 pm 19:55 Clear 66 18.8 46 7.5 48 48 S 16 26 29.68 1005 10 16.0934 0 0
8:15 pm 20:15 Clear 64 17.7 46 7.6 52 52 SSE 14 22 29.68 1005 10 16.0934 0 0
8:35 pm 20:35 Clear 63 17.4 47 8.4 56 56 SSE 13 20 29.74 1007 10 16.0934 0 0
8:55 pm 20:55 Clear 63 17.1 48 8.7 58 58 S 15 24 29.74 1007 10 16.0934 0 0
9:15 pm 21:15 Clear 63 17 48 9 59 59 S 15 24 29.74 1007 10 16.0934 0 0
9:35 pm 21:35 Clear 62 16.6 49 9.2 62 62 S 15 24 29.74 1007 10 16.0934 0 0
9:55 pm 21:55 Clear 61 16.1 49 9.5 65 65 S 13 20 29.74 1007 10 16.0934 0 0
10:15 pm 22:15 Clear 60 15.7 49 9.5 67 67 S 13 20 29.74 1007 10 16.0934 0 0
10:35 pm 22:35 Clear 60 15.5 49 9.5 68 68 S 14 22 29.74 1007 10 16.0934 0 0
10:55 pm 22:55 Clear 59 15.2 49 9.5 69 69 S 14 22 29.74 1007 10 16.0934 0 0
11:15 pm 23:15 Clear 59 15.1 49 9.5 69 69 S 17 28 29.74 1007 10 16.0934 0 0
11:35 pm 23:35 Clear 59 15.2 49 9.5 69 69 S 17 28 29.74 1007 10 16.0934 0 0
11:55 pm 23:55 Clear 59 15.1 50 9.8 71 71 S 15 24 29.74 1007 10 16.0934 0 0

Powered by AerisWeather